LiveATC.Net - Listen to live air traffic control over the Internet!


ICAO: CYVO  IATA: YVO   Airport: Val-D'Or Airport
City: Val-D'Or   State/Province: Quebec
Country: Canada   Continent: North America
CYVO METAR Weather: CYVO 231000Z 19013KT 15SM BKN160 OVC210 06/M01 A2961 RMK AC7CS1 SLP042
CYVO ADS-B Flight Tracking  (ADSBExchange)
CYVO Flight Activity (FlightAware)
CYVO Webcam:  (Airport Webcams) 

CYVO Gnd/RDO/Center
Feed Status: UP   Listeners: 2
Listen in your browser - HTML5 player (in browser, HTML5)
Click here to listen with your own player (launches your MP3 player)
Archive Access: CYVO Gnd/RDO/Center
FacilityFrequency
Emergency/Guard121.500
Montreal Centre125.900
Rouyn RDO (FSS)118.500
Val-d'Or Ground Services122.600
Val-D'Or VFR En Route126.700

NOTICE

Unauthorized use prohibited. See LiveATC.net Terms of Service


Airport/ARTCC Code
Frequency Search
(e.g., 124.400, 128.75)
Site-wide search
 


Browse Feeds
Top 50 Feeds
HF Oceanic Feeds
Coverage Map
Bad Weather Areas

LiveATC FAQ

Increase Coverage

Contact LiveATC.net
Press Inquiries

LiveATC on iPhone
LiveATC on Android

LiveATC Mobile
(Mobile browser)

ATC Audio Archives
Interesting Recordings

LiveATC Forums


Home Page
About LiveATC.net


Terms of Use
Privacy Policy

AIRMETs/SIGMETs

FAA Airport Status
NAS Status
Arrival Demand


Server Software By:
Icecast.org
Liquidsoap